Regional Weather Roundup
Issued by NWS Jackson, KY

Home | Current Version | Previous Version | Text Only | Print | Product List | Glossary Off
Versions: 1 2 3 4 5 6 7 8 9 10 11 12 13 14 15 16 17 18 19 20 21 22 23 24 25 26 27 28 29 30 31 32 33 34 35 36 37 38 39 40 41 42 43 44 45 46 47 48 49 50

000
ASUS43 KJKL 280005
RWRJKL

EAST KENTUCKY HOURLY WEATHER ROUNDUP
NATIONAL WEATHER SERVICE JACKSON KY
700 PM EST THU NOV 27 2014

NOTE: "FAIR" INDICATES FEW OR NO CLOUDS BELOW 12,000 FEET WITH
NO SIGNIFICANT WEATHER AND/OR OBSTRUCTIONS TO VISIBILITY.

* THESE REPORTS ARE NOT UNDER NWS QUALITY CONTROL AND MAY NOT
  REPORT WEATHER SUCH AS PRECIPITATION AND FOG.

KYZ079-080-083-085-087-088-110-112-115-119-120-280100
...EASTERN KENTUCKY...

CITY           SKY/WX    TMP DP  RH WIND       PRES   REMARKS
JACKSON        CLOUDY    30  22  72 SW3       30.33R
6HR MIN TEMP:  30; 6HR MAX TEMP:  31;

LONDON         CLOUDY    31  24  75 W6        30.37R WCI  25
6HR MIN TEMP:  30; 6HR MAX TEMP:  32; 6HR PCP: TRACE;

SOMERSET*      CLOUDY    30  23  74 NW9       30.42R WCI  22
MONTICELLO*    CLOUDY    31  26  81 NW6       30.44R WCI  25
6HR MIN TEMP:  31; 6HR MAX TEMP:  34; 6HR PCP: TRACE;

HARLAN APT*    CLOUDY    30  25  80 W6        30.34R WCI  24
BLACK MTN*       N/A     18  18 100 N3          N/A
PIKEVILLE APT* CLOUDY    30  21  69 SW6       30.32R WCI  24
BIG SANDY*     CLOUDY    31  24  75 W5        30.33R WCI  26
6HR MIN TEMP:  31; 6HR MAX TEMP:  33;

MOREHEAD APT*  CLOUDY    32  23  69 W5        30.37R WCI  27
$$

KYZ035-036-041-042-044-050-067-078-099-280100
...CENTRAL KENTUCKY...

CITY           SKY/WX    TMP DP  RH WIND       PRES   REMARKS
MT STERLING*   CLOUDY    32  27  80 NW8       30.37R WCI  25
FLEMING/MASON* CLOUDY    29  26  89 W9        30.37R WCI  21
DANVILLE*      CLOUDY    30  23  74 NW9G16    30.40R WCI  22
RICHMOND*      CLOUDY    30  23  74 W14       30.37R WCI  20
LEXINGTON      CLOUDY    30  22  72 W16       30.37R WCI  19
6HR MIN TEMP:  30; 6HR MAX TEMP:  34;

FRANKFORT      CLOUDY    31  21  66 W7        30.38R WCI  24
6HR MIN TEMP:  31; 6HR MAX TEMP:  34;

$$

KYZ091>093-OHZ055-061-077-WVZ005-015-034-035-042-280100
...SOUTHERN OHIO/WEST VIRGINIA...

CITY           SKY/WX    TMP DP  RH WIND       PRES   REMARKS
COVINGTON      FLURRIES  30  22  72 W12       30.35R WCI  20
COLUMBUS       CLOUDY    30  25  80 W15       30.28R WCI  19
DAYTON         CLOUDY    29  20  69 W17       30.33R WCI  17
WILMINGTON     CLOUDY    30  20  66 W16       30.31R WCI  19
HUNTINGTON     FLURRIES  32  23  69 W12       30.32R WCI  23
CHARLESTON     FLURRIES  31  26  82 W7        30.30R WCI  24
PINEVILLE*     CLOUDY    31  28  85 MISG      30.32R
BECKLEY        LGT SNOW  26  21  81 W12       30.21R WCI  16
BLUEFIELD      FLURRIES  27  20  75 NW10G22   30.20R WCI  17
$$

VAZ002-007-008-TNZ017-027-036-066-071-280100
...SOUTHWEST VIRGINIA/EAST TENNESSEE...

CITY           SKY/WX    TMP DP  RH WIND       PRES   REMARKS
WISE*          FLURRIES  27  25  93 W8        30.27R WCI  18
JONESVILLE*    CLOUDY    32  23  69 CALM      30.37R
ABINGDON*      CLOUDY    32  25  76 N10G16    30.26R WCI  23
BRISTOL        CLOUDY    32  25  75 W10       30.31R WCI  24
KNOXVILLE      CLOUDY    34  24  67 W16       30.38R WCI  24
OAK RIDGE      PTCLDY    35  23  61 VRB3      30.40R
CROSSVILLE     CLOUDY    30  21  69 NW12      30.36R WCI  20
NASHVILLE      CLOUDY    33  22  63 N6        30.47R WCI  28
$$

...KEY TO REMARKS...
VSB - VISIBILITY IN MILES
WCI - WIND CHILL INDEX
HX  - HEAT INDEX

$$


USA.gov is the U.S. government's official web portal to all federal, state and local government web resources and services.